Terminal Aerodrome Forecast
Issued by NWS Wilmington, NC

Home | Current Version | Previous Version | Text Only | Print | Product List | Glossary On
Versions: 1 2 3 4 5 6 7 8 9 10 11 12 13
000
FTUS42 KILM 310500
TAFFLO
TAF
KFLO 310530Z 3106/0106 06003KT P6SM OVC100
      TEMPO 3108/3112 3SM BR
     FM311500 10008KT P6SM FEW040 SCT080 BKN200
     FM010000 08004KT P6SM FEW025 SCT250=

USA.gov is the U.S. government's official web portal to all federal, state and local government web resources and services.